SCP
0 0 -0 0 -0 0 0 0 0 0 0 0 -0 -0 -0 -0 -0 -0 -0 0 -0 -0 -0 -0 -0 -0 -0 -0 -0 -0 -0 -0 -0 -0 -0 0 0 0 0 0 0 0 0
-0 -0 0 -0 0 0 0 0 0 0 0 -0 -0 -0 0 -0 -0 -0 0 0 0 0 0 0 -0 -0 -0 -0 -0 -0 -0 -0 -0 -0 0 0 0 0 0 0 0 0 0
-0 -0 1 -0 0 0 0 0 0 0 0 -0 -0 0 0 0 -0 -0 0 0 0 -0 0 0 0 0 -0 -0 -0 -0 -0 -0 -0 0 0 0 0 0 0 0 0 0 0
-0 -0 0 0 0 0 0 0 0 0 0 -0 -0 0 0 0 0 -0 -0 0 0 0 0 0 0 0 0 0 0 -0 -0 0 0 0 0 0 0 0 0 0 0 0 0
0 0 0 1 0 0 0 0 0 0 0 0 0 0 0 0 0 0 0 0 0 0 0 0 0 0 0 0 0 0 0 0 0 0 0 0 0 0 0 0 0 0 0
0 0 0 1 0 0 0 0 0 0 0 0 -0 0 0 0 0 0 0 0 0 0 0 0 0 0 0 0 0 0 0 0 0 0 0 0 0 0 0 0 0 0 0
0 -0 0 1 1 1 0 0 0 0 0 0 1 0 0 0 0 0 0 0 0 0 0 0 0 0 0 0 0 0 0 0 0 0 0 0 0 0 0 0 0 0 0
0 0 1 1 1 1 2 1 0 0 0 1 1 0 0 0 0 0 0 0 0 0 0 0 0 0 0 0 0 0 0 0 0 0 0 0 0 0 0 0 0 0 0
1 0 2 2 2 1 1 1 0 0 0 1 1 0 0 0 0 0 0 0 0 0 0 0 0 0 0 0 0 0 0 0 0 0 0 0 0 0 0 0 0 0 0
3 3 3 4 3 1 1 2 0 0 0 0 0 0 0 1 0 0 0 0 0 0 0 0 0 0 0 0 0 0 0 0 0 0 0 0 0 0 0 0 0 0 0
3 5 5 5 2 2 1 0 1 0 0 0 0 0 0 0 0 0 0 0 0 0 0 0 0 0 0 0 0 0 0 0 0 0 0 0 0 0 0 0 0 0 0
6 7 8 6 3 2 1 1 1 1 0 0 0 0 0 0 0 0 0 0 0 0 0 0 0 0 0 0 0 0 0 0 0 0 0 0 0 0 0 0 0 0 0
10 7 8 7 4 2 1 1 1 0 0 0 0 0 0 0 0 0 0 0 0 0 0 0 0 0 0 0 0 0 0 0 0 0 0 0 0 0 0 0 0 0 0
10 9 9 7 6 4 2 1 1 0 0 0 0 0 0 0 0 0 0 0 0 0 0 0 0 0 0 0 0 0 0 0 0 0 0 0 0 0 0 0 0 0 0
6 12 13 8 7 6 3 1 1 0 0 0 0 0 0 0 0 0 0 0 0 0 0 0 0 0 0 0 0 0 0 0 0 0 0 0 0 0 0 0 0 0 0
2 3 11 13 10 8 4 1 0 0 0 0 0 0 0 0 0 0 0 0 0 0 0 0 0 0 0 0 0 0 0 0 0 0 0 0 0 0 0 0 0 0 0
5 6 5 8 12 8 5 2 1 0 0 0 0 0 0 0 0 0 0 0 0 0 0 0 0 0 0 0 0 0 0 0 0 0 0 0 0 0 0 0 0 0 0
5 5 8 9 12 10 5 2 1 1 1 0 0 0 0 0 0 0 0 0 0 0 0 0 0 0 0 0 0 0 0 0 0 0 0 0 0 0 0 0 0 0 0
3 4 4 5 4 6 4 3 1 1 1 0 0 0 0 0 0 0 0 0 0 0 0 0 0 0 0 0 0 0 0 0 0 0 0 0 0 0 0 0 0 0 0
2 3 3 2 3 5 3 3 1 1 1 0 0 0 0 0 0 0 0 0 0 0 0 0 0 0 0 0 0 0 0 0 0 -0 0 0 0 0 0 0 0 0 0
2 2 2 2 3 3 4 2 1 1 1 0 0 0 0 0 0 0 0 0 0 0 0 0 0 0 0 0 0 0 0 0 -0 0 0 0 0 0 0 0 0 0 0
1 2 2 2 2 3 3 2 2 2 1 0 0 0 0 0 0 0 0 0 0 0 0 0 0 0 0 0 0 0 0 0 0 0 0 0 0 0 0 0 0 0 0
1 1 1 2 2 2 2 0 0 2 1 0 0 0 0 0 0 0 0 0 0 0 0 0 0 0 0 0 0 0 0 0 0 0 0 0 0 0 0 0 0 0 0
1 1 1 1 1 2 1 0 0 1 1 0 0 0 0 0 0 0 0 0 0 0 0 0 0 0 0 0 0 0 0 0 0 0 0 0 0 0 0 0 0 0 0
0 0 1 1 1 1 1 0 0 1 1 0 0 0 0 0 0 0 0 0 0 0 0 0 0 0 0 0 0 0 0 0 0 0 0 0 0 0 0 0 0 0 0
0 0 0 0 0 0 1 0 0 1 1 0 0 0 0 0 0 0 0 0 0 0 0 0 0 0 0 0 0 0 0 0 0 0 0 0 0 0 0 0 0 0 0
Wind_Speed_500mb
29 19 19 33 14 12 8 3 22 8 15 9 16 16 20 5 8 5 18 30 28 25 27 28 29 31 33 33 34 35 33 30 25 23 20 18 15 14 14 14 15 14 14
17 18 5 21 17 15 10 12 11 14 14 15 10 10 17 10 5 5 7 11 15 18 24 24 25 25 27 31 33 33 32 30 26 23 22 22 21 20 18 16 16 17 17
20 31 14 11 18 18 13 13 14 14 11 7 11 15 15 11 6 9 14 4 9 11 16 20 30 24 25 26 28 30 30 28 24 21 19 19 19 20 21 23 23 23 22
29 25 13 18 16 19 22 19 16 12 16 15 10 10 15 13 13 7 13 5 2 4 13 15 20 23 23 26 25 28 30 30 26 21 19 18 21 22 26 29 28 29 31
32 19 23 19 24 20 17 19 18 21 20 18 14 21 18 15 10 10 19 12 8 12 14 14 12 11 18 24 17 31 28 28 27 24 22 21 21 22 23 24 23 23 24
36 35 29 27 33 26 25 25 20 23 22 25 18 26 19 20 20 22 13 18 20 17 10 14 15 10 12 18 14 36 25 28 26 22 19 18 20 23 22 21 24 25 27
40 47 42 40 41 32 24 28 40 36 30 25 17 22 22 25 25 21 22 27 29 21 12 10 9 6 11 4 17 27 27 25 20 16 15 17 19 20 21 24 25 25 25
47 51 51 44 46 44 40 39 34 43 42 39 37 24 16 21 28 33 23 27 22 25 18 10 7 5 6 9 13 27 24 31 21 15 13 15 17 19 19 21 24 27 29
59 61 59 59 55 45 43 41 41 39 48 43 51 38 24 25 37 31 36 35 28 26 25 18 19 17 8 16 20 30 36 29 23 13 9 11 11 12 17 20 23 24 25
74 66 75 65 65 43 44 44 46 50 47 55 50 53 44 12 14 22 29 39 29 32 35 15 37 28 23 23 29 31 29 28 17 9 9 11 12 16 18 21 24 27 29
75 79 80 76 72 47 48 52 58 57 56 60 63 54 55 41 40 24 32 40 44 35 28 20 24 13 20 26 25 31 23 25 16 10 10 12 15 17 19 23 26 28 28
84 83 81 85 70 65 57 42 62 61 63 69 63 50 43 46 63 53 28 46 39 41 41 34 30 21 15 24 30 29 26 22 13 10 12 13 15 16 19 21 22 24 27
84 94 93 87 80 78 70 61 73 55 69 72 73 70 60 66 65 51 43 36 42 39 43 30 34 33 29 32 29 29 25 17 11 11 12 11 12 15 16 18 20 24 27
86 94 104 101 84 90 92 86 73 72 64 78 73 64 62 74 69 60 48 46 43 46 47 48 42 33 38 36 31 32 23 13 7 8 8 9 11 12 15 19 23 26 28
86 93 108 110 103 97 104 107 88 76 64 79 83 70 71 74 67 58 54 55 49 43 53 47 42 48 45 43 37 33 30 12 7 3 5 8 9 13 19 22 24 26 27
97 93 89 111 111 108 108 118 107 95 77 77 86 78 77 83 66 62 64 60 59 52 49 55 57 51 50 42 36 25 29 17 13 3 6 8 11 16 19 20 25 24 24
83 86 101 97 113 116 115 118 124 113 97 87 86 87 84 87 86 69 71 70 63 55 50 35 47 48 51 47 36 25 28 23 23 8 9 14 15 16 19 22 27 25 25
76 79 89 97 110 111 115 118 130 128 111 102 97 92 86 85 87 82 79 77 68 63 61 45 56 58 53 47 42 34 28 16 18 18 16 18 17 20 22 22 25 27 29
60 74 80 91 101 108 110 116 130 128 128 117 104 103 92 87 84 92 86 82 74 63 60 54 64 57 51 42 50 39 29 32 25 31 13 19 21 22 23 20 26 29 34
62 69 75 84 92 105 102 114 124 120 114 120 116 108 98 95 88 101 91 88 81 77 66 59 62 59 47 39 40 35 34 36 36 19 22 17 26 24 24 22 29 33 33
55 60 72 75 88 94 105 101 107 112 108 110 111 115 103 95 89 103 102 94 86 85 74 64 65 57 47 44 47 33 25 15 26 32 31 20 17 21 23 25 31 32 45
61 62 61 71 77 83 96 103 109 105 106 108 112 116 103 93 89 94 106 99 92 88 83 84 78 69 59 52 40 45 43 36 34 32 28 20 10 15 21 27 33 40 38
63 69 66 65 69 81 88 94 100 104 114 108 108 109 106 97 96 101 100 95 86 79 75 78 86 77 68 60 40 43 44 37 31 30 24 13 7 16 19 26 34 33 34
65 70 72 70 70 67 82 91 96 100 114 115 111 107 104 103 107 106 103 99 88 83 80 77 81 77 67 56 47 50 44 44 45 30 25 26 7 15 19 26 26 27 32
73 67 70 72 74 78 65 78 90 96 115 121 114 108 108 111 110 112 108 100 92 92 81 90 84 85 66 71 65 52 57 43 36 30 27 28 15 18 19 22 22 29 24
72 71 76 78 80 80 76 66 82 111 110 107 111 113 118 119 119 121 111 108 107 94 100 99 91 89 62 63 61 59 56 41 24 23 37 31 15 13 24 23 18 17 30
Wind_Direction_500mb
224 248 176 147 119 143 239 62 165 158 118 106 111 138 106 71 311 35 59 50 48 44 45 50 58 57 56 52 48 46 43 43 41 40 34 28 18 3 356 355 349 346 344
205 219 291 123 163 169 185 183 241 149 134 165 152 143 112 112 174 358 17 46 75 48 36 38 41 47 47 48 46 42 39 38 37 39 40 39 38 34 26 12 356 349 346
208 212 151 174 179 175 182 181 161 146 149 171 155 149 141 152 50 313 306 314 78 51 41 33 18 28 32 36 36 35 32 30 31 36 40 37 35 34 26 19 17 9 1
200 225 209 190 192 193 178 186 184 176 181 203 171 163 164 175 171 252 258 257 44 30 10 22 25 22 22 17 20 24 22 24 28 28 30 39 40 34 38 40 37 32 33
215 201 203 238 207 215 184 182 181 191 194 195 196 184 169 194 208 205 197 257 281 307 339 8 2 15 27 10 16 14 16 15 17 23 30 37 42 38 35 34 34 27 19
212 224 209 227 236 212 192 195 194 197 208 196 215 189 184 205 172 195 235 256 254 277 320 324 331 354 11 7 4 2 7 12 14 16 25 29 33 39 43 33 29 28 28
226 219 221 223 231 223 198 212 196 198 194 196 194 182 180 198 204 214 204 241 247 251 269 294 309 325 328 339 340 348 350 5 7 6 17 29 40 43 34 32 32 29 21
225 217 223 222 236 225 214 226 221 209 199 195 197 206 205 246 229 198 207 233 241 246 255 251 235 246 311 270 322 331 339 351 358 11 26 29 31 29 24 21 15 13 9
225 218 226 214 229 228 224 238 233 222 208 201 201 193 200 226 216 213 200 202 239 245 231 216 181 164 248 306 309 308 323 334 348 13 32 32 27 22 11 8 7 6 1
226 224 226 223 225 222 241 250 244 229 214 204 212 200 193 222 165 187 221 204 208 220 234 239 208 225 238 254 282 301 310 332 344 353 13 17 13 7 6 5 3 1 3
231 224 230 232 228 217 234 264 242 233 224 214 215 207 200 226 241 241 200 203 208 213 217 186 224 231 209 233 248 269 306 325 331 346 355 354 357 359 1 359 358 359 3
232 229 238 240 230 223 227 243 247 245 227 215 211 207 215 223 235 238 242 208 207 195 206 216 221 206 230 234 246 281 301 319 317 332 334 353 354 350 353 355 358 0 359
232 231 232 240 233 224 222 239 242 245 233 219 215 227 241 231 233 233 237 226 199 191 193 202 208 213 217 230 248 266 287 298 311 320 335 340 346 346 353 358 356 350 345
231 238 234 240 240 226 224 232 237 242 239 228 224 239 237 218 220 219 217 213 194 193 201 204 211 212 215 233 247 267 284 272 292 310 315 342 337 348 349 344 341 336 333
237 241 244 239 244 238 232 230 236 239 235 233 231 235 219 217 220 222 212 216 216 190 196 203 204 209 217 226 238 254 262 264 268 271 320 325 340 343 342 342 336 331 326
246 242 251 246 236 238 238 233 235 237 233 232 230 233 223 214 215 217 220 216 219 220 208 222 214 209 208 218 235 231 251 249 222 251 336 331 345 341 343 348 340 331 341
252 249 250 248 239 234 237 238 238 237 234 230 232 232 229 221 219 218 218 215 219 221 215 213 211 204 206 216 229 226 231 235 221 248 305 340 338 347 353 344 348 349 353
260 255 247 249 244 242 240 243 241 237 233 232 232 233 229 222 219 218 219 214 213 220 215 212 196 200 211 218 228 230 219 204 261 259 258 317 325 349 346 332 328 336 352
273 260 252 246 245 244 240 241 242 243 241 239 233 235 232 225 216 214 217 212 207 211 210 198 199 210 211 220 217 225 212 187 227 256 271 282 311 330 329 310 307 318 334
277 266 261 251 246 242 239 238 239 240 239 243 238 235 231 230 218 212 210 209 205 209 209 199 200 199 207 218 209 209 201 197 207 224 243 283 292 299 318 299 290 304 322
277 278 271 262 255 245 242 236 231 238 238 233 236 236 231 230 225 215 210 208 209 210 201 194 197 194 201 204 201 187 205 194 189 209 233 256 274 280 311 300 307 316 325
281 280 279 272 263 249 245 240 231 230 229 229 231 232 229 228 225 220 216 220 221 211 202 197 201 199 199 204 198 192 211 212 204 232 229 270 250 272 289 288 308 314 320
294 282 281 277 270 259 249 242 235 232 225 233 230 231 226 222 220 213 212 215 216 216 221 216 205 202 193 196 191 188 203 210 215 211 221 249 210 270 279 284 306 309 319
294 290 287 280 274 270 259 249 240 236 225 231 231 228 222 216 210 213 209 211 210 209 213 213 204 195 198 184 188 198 204 211 209 217 234 242 286 287 285 296 310 321 319
299 298 292 288 278 271 272 259 244 233 228 225 226 221 217 214 214 216 209 208 206 204 201 199 195 195 183 192 194 202 204 208 214 217 224 225 248 280 299 307 310 318 323
295 298 294 292 289 274 268 272 251 238 225 207 213 217 218 224 220 215 211 207 203 202 193 194 193 192 205 193 190 206 202 193 204 172 200 208 236 278 305 291 314 324 335
Wind_Speed_850mb
29 19 19 33 14 12 8 3 22 8 15 9 16 16 20 5 8 5 18 30 28 25 27 28 29 31 33 33 34 35 33 30 25 23 20 18 15 14 14 14 15 14 14
17 18 5 21 17 15 10 12 11 14 14 15 10 10 17 10 5 5 7 11 15 18 24 24 25 25 27 31 33 33 32 30 26 23 22 22 21 20 18 16 16 17 17
20 31 14 11 18 18 13 13 14 14 11 7 11 15 15 11 6 9 14 4 9 11 16 20 30 24 25 26 28 30 30 28 24 21 19 19 19 20 21 23 23 23 22
29 25 13 18 16 19 22 19 16 12 16 15 10 10 15 13 13 7 13 5 2 4 13 15 20 23 23 26 25 28 30 30 26 21 19 18 21 22 26 29 28 29 31
32 19 23 19 24 20 17 19 18 21 20 18 14 21 18 15 10 10 19 12 8 12 14 14 12 11 18 24 17 31 28 28 27 24 22 21 21 22 23 24 23 23 24
36 35 29 27 33 26 25 25 20 23 22 25 18 26 19 20 20 22 13 18 20 17 10 14 15 10 12 18 14 36 25 28 26 22 19 18 20 23 22 21 24 25 27
40 47 42 40 41 32 24 28 40 36 30 25 17 22 22 25 25 21 22 27 29 21 12 10 9 6 11 4 17 27 27 25 20 16 15 17 19 20 21 24 25 25 25
47 51 51 44 46 44 40 39 34 43 42 39 37 24 16 21 28 33 23 27 22 25 18 10 7 5 6 9 13 27 24 31 21 15 13 15 17 19 19 21 24 27 29
59 61 59 59 55 45 43 41 41 39 48 43 51 38 24 25 37 31 36 35 28 26 25 18 19 17 8 16 20 30 36 29 23 13 9 11 11 12 17 20 23 24 25
74 66 75 65 65 43 44 44 46 50 47 55 50 53 44 12 14 22 29 39 29 32 35 15 37 28 23 23 29 31 29 28 17 9 9 11 12 16 18 21 24 27 29
75 79 80 76 72 47 48 52 58 57 56 60 63 54 55 41 40 24 32 40 44 35 28 20 24 13 20 26 25 31 23 25 16 10 10 12 15 17 19 23 26 28 28
84 83 81 85 70 65 57 42 62 61 63 69 63 50 43 46 63 53 28 46 39 41 41 34 30 21 15 24 30 29 26 22 13 10 12 13 15 16 19 21 22 24 27
84 94 93 87 80 78 70 61 73 55 69 72 73 70 60 66 65 51 43 36 42 39 43 30 34 33 29 32 29 29 25 17 11 11 12 11 12 15 16 18 20 24 27
86 94 104 101 84 90 92 86 73 72 64 78 73 64 62 74 69 60 48 46 43 46 47 48 42 33 38 36 31 32 23 13 7 8 8 9 11 12 15 19 23 26 28
86 93 108 110 103 97 104 107 88 76 64 79 83 70 71 74 67 58 54 55 49 43 53 47 42 48 45 43 37 33 30 12 7 3 5 8 9 13 19 22 24 26 27
97 93 89 111 111 108 108 118 107 95 77 77 86 78 77 83 66 62 64 60 59 52 49 55 57 51 50 42 36 25 29 17 13 3 6 8 11 16 19 20 25 24 24
83 86 101 97 113 116 115 118 124 113 97 87 86 87 84 87 86 69 71 70 63 55 50 35 47 48 51 47 36 25 28 23 23 8 9 14 15 16 19 22 27 25 25
76 79 89 97 110 111 115 118 130 128 111 102 97 92 86 85 87 82 79 77 68 63 61 45 56 58 53 47 42 34 28 16 18 18 16 18 17 20 22 22 25 27 29
60 74 80 91 101 108 110 116 130 128 128 117 104 103 92 87 84 92 86 82 74 63 60 54 64 57 51 42 50 39 29 32 25 31 13 19 21 22 23 20 26 29 34
62 69 75 84 92 105 102 114 124 120 114 120 116 108 98 95 88 101 91 88 81 77 66 59 62 59 47 39 40 35 34 36 36 19 22 17 26 24 24 22 29 33 33
55 60 72 75 88 94 105 101 107 112 108 110 111 115 103 95 89 103 102 94 86 85 74 64 65 57 47 44 47 33 25 15 26 32 31 20 17 21 23 25 31 32 45
61 62 61 71 77 83 96 103 109 105 106 108 112 116 103 93 89 94 106 99 92 88 83 84 78 69 59 52 40 45 43 36 34 32 28 20 10 15 21 27 33 40 38
63 69 66 65 69 81 88 94 100 104 114 108 108 109 106 97 96 101 100 95 86 79 75 78 86 77 68 60 40 43 44 37 31 30 24 13 7 16 19 26 34 33 34
65 70 72 70 70 67 82 91 96 100 114 115 111 107 104 103 107 106 103 99 88 83 80 77 81 77 67 56 47 50 44 44 45 30 25 26 7 15 19 26 26 27 32
73 67 70 72 74 78 65 78 90 96 115 121 114 108 108 111 110 112 108 100 92 92 81 90 84 85 66 71 65 52 57 43 36 30 27 28 15 18 19 22 22 29 24
72 71 76 78 80 80 76 66 82 111 110 107 111 113 118 119 119 121 111 108 107 94 100 99 91 89 62 63 61 59 56 41 24 23 37 31 15 13 24 23 18 17 30
Wind_Direction_850mb
224 248 176 147 119 143 239 62 165 158 118 106 111 138 106 71 311 35 59 50 48 44 45 50 58 57 56 52 48 46 43 43 41 40 34 28 18 3 356 355 349 346 344
205 219 291 123 163 169 185 183 241 149 134 165 152 143 112 112 174 358 17 46 75 48 36 38 41 47 47 48 46 42 39 38 37 39 40 39 38 34 26 12 356 349 346
208 212 151 174 179 175 182 181 161 146 149 171 155 149 141 152 50 313 306 314 78 51 41 33 18 28 32 36 36 35 32 30 31 36 40 37 35 34 26 19 17 9 1
200 225 209 190 192 193 178 186 184 176 181 203 171 163 164 175 171 252 258 257 44 30 10 22 25 22 22 17 20 24 22 24 28 28 30 39 40 34 38 40 37 32 33
215 201 203 238 207 215 184 182 181 191 194 195 196 184 169 194 208 205 197 257 281 307 339 8 2 15 27 10 16 14 16 15 17 23 30 37 42 38 35 34 34 27 19
212 224 209 227 236 212 192 195 194 197 208 196 215 189 184 205 172 195 235 256 254 277 320 324 331 354 11 7 4 2 7 12 14 16 25 29 33 39 43 33 29 28 28
226 219 221 223 231 223 198 212 196 198 194 196 194 182 180 198 204 214 204 241 247 251 269 294 309 325 328 339 340 348 350 5 7 6 17 29 40 43 34 32 32 29 21
225 217 223 222 236 225 214 226 221 209 199 195 197 206 205 246 229 198 207 233 241 246 255 251 235 246 311 270 322 331 339 351 358 11 26 29 31 29 24 21 15 13 9
225 218 226 214 229 228 224 238 233 222 208 201 201 193 200 226 216 213 200 202 239 245 231 216 181 164 248 306 309 308 323 334 348 13 32 32 27 22 11 8 7 6 1
226 224 226 223 225 222 241 250 244 229 214 204 212 200 193 222 165 187 221 204 208 220 234 239 208 225 238 254 282 301 310 332 344 353 13 17 13 7 6 5 3 1 3
231 224 230 232 228 217 234 264 242 233 224 214 215 207 200 226 241 241 200 203 208 213 217 186 224 231 209 233 248 269 306 325 331 346 355 354 357 359 1 359 358 359 3
232 229 238 240 230 223 227 243 247 245 227 215 211 207 215 223 235 238 242 208 207 195 206 216 221 206 230 234 246 281 301 319 317 332 334 353 354 350 353 355 358 0 359
232 231 232 240 233 224 222 239 242 245 233 219 215 227 241 231 233 233 237 226 199 191 193 202 208 213 217 230 248 266 287 298 311 320 335 340 346 346 353 358 356 350 345
231 238 234 240 240 226 224 232 237 242 239 228 224 239 237 218 220 219 217 213 194 193 201 204 211 212 215 233 247 267 284 272 292 310 315 342 337 348 349 344 341 336 333
237 241 244 239 244 238 232 230 236 239 235 233 231 235 219 217 220 222 212 216 216 190 196 203 204 209 217 226 238 254 262 264 268 271 320 325 340 343 342 342 336 331 326
246 242 251 246 236 238 238 233 235 237 233 232 230 233 223 214 215 217 220 216 219 220 208 222 214 209 208 218 235 231 251 249 222 251 336 331 345 341 343 348 340 331 341
252 249 250 248 239 234 237 238 238 237 234 230 232 232 229 221 219 218 218 215 219 221 215 213 211 204 206 216 229 226 231 235 221 248 305 340 338 347 353 344 348 349 353
260 255 247 249 244 242 240 243 241 237 233 232 232 233 229 222 219 218 219 214 213 220 215 212 196 200 211 218 228 230 219 204 261 259 258 317 325 349 346 332 328 336 352
273 260 252 246 245 244 240 241 242 243 241 239 233 235 232 225 216 214 217 212 207 211 210 198 199 210 211 220 217 225 212 187 227 256 271 282 311 330 329 310 307 318 334
277 266 261 251 246 242 239 238 239 240 239 243 238 235 231 230 218 212 210 209 205 209 209 199 200 199 207 218 209 209 201 197 207 224 243 283 292 299 318 299 290 304 322
277 278 271 262 255 245 242 236 231 238 238 233 236 236 231 230 225 215 210 208 209 210 201 194 197 194 201 204 201 187 205 194 189 209 233 256 274 280 311 300 307 316 325
281 280 279 272 263 249 245 240 231 230 229 229 231 232 229 228 225 220 216 220 221 211 202 197 201 199 199 204 198 192 211 212 204 232 229 270 250 272 289 288 308 314 320
294 282 281 277 270 259 249 242 235 232 225 233 230 231 226 222 220 213 212 215 216 216 221 216 205 202 193 196 191 188 203 210 215 211 221 249 210 270 279 284 306 309 319
294 290 287 280 274 270 259 249 240 236 225 231 231 228 222 216 210 213 209 211 210 209 213 213 204 195 198 184 188 198 204 211 209 217 234 242 286 287 285 296 310 321 319
299 298 292 288 278 271 272 259 244 233 228 225 226 221 217 214 214 216 209 208 206 204 201 199 195 195 183 192 194 202 204 208 214 217 224 225 248 280 299 307 310 318 323
295 298 294 292 289 274 268 272 251 238 225 207 213 217 218 224 220 215 211 207 203 202 193 194 193 192 205 193 190 206 202 193 204 172 200 208 236 278 305 291 314 324 335